Regional Weather Roundup
Issued by NWS Portland, ME

Current Version | Previous Version | Text Only | Print | Product List | Glossary Off
Versions: 1 2 3 4 5 6 7 8 9 10 11 12 13 14 15 16 17 18 19 20 21 22 23 24 25 26 27 28 29 30 31 32 33 34 35 36 37 38 39 40 41 42 43 44 45 46 47 48 49 50
000 ASUS41 KGYX 192006 RWRGYX WEATHER ROUNDUP FOR MAINE AND NEW HAMPSHIRE NATIONAL WEATHER SERVICE GRAY ME 400 PM EDT SAT AUG 19 2017 MEZ002-005-006-010-012-015-018-020-021-024-026-027-029-192100- MAINE CITY SKY/WX TMP DP RH WIND PRES REMARKS PORTLAND MOSUNNY 72 64 76 S12 29.78S SANFORD MOSUNNY 80 69 69 VRB3 29.77S BAR HARBOR CLOUDY 72 67 84 S6 29.78S WISCASSET SUNNY 77 66 68 S5 29.78F ROCKLAND CLOUDY 69 65 86 S7 29.79S FRYEBURG SUNNY 80 68 66 CALM 29.76F LEWISTONAUBURN N/A N/A N/A N/A MISG N/A AUGUSTA CLOUDY 72 65 78 SE6 29.79S WATERVILLE CLOUDY 70 64 81 CALM 29.77S BANGOR CLOUDY 71 64 78 W3 29.79S GREENVILLE N/A 70 64 81 SE7 29.77F MILLINOCKET CLOUDY 68 63 84 CALM 29.80S HOULTON CLOUDY 66 64 93 CALM 29.79R PRESQUE ISLE LGT RAIN 64 62 93 SE6 29.81S FRENCHVILLE CLOUDY 62 59 90 SE9 29.80F CARIBOU CLOUDY 65 61 87 S7 29.79F $$ NHZ002-005-008-009-011-012-014-192100- NEW HAMPSHIRE CITY SKY/WX TMP DP RH WIND PRES REMARKS PORTSMOUTH PTSUNNY 77 67 72 SE9 29.76S ROCHESTER PTSUNNY 84 66 54 VRB5 29.76F NASHUA MOSUNNY 85 66 53 W9 29.78F MANCHESTER MOSUNNY 85 60 42 W8 29.76S CONCORD SUNNY 87 61 41 W13 29.77F LACONIA PTSUNNY 82 67 60 VRB6 29.78S HAZE PLYMOUTH FAIR 82 63 51 CALM 29.76F BERLIN PTSUNNY 79 60 52 VRB6 29.78S WHITEFIELD PTSUNNY 78 63 59 VRB3 29.78F JAFFREY PTSUNNY 81 63 54 VRB6 29.83F KEENE N/A N/A N/A N/A MISG N/A LEBANON MOSUNNY 84 62 47 SW12 29.77S MT WASHINGTON FOG 54 54 100 W22G33 N/A VSB 1/16 $$ VTZ005-007-008-192100- VERMONT CITY SKY/WX TMP DP RH WIND PRES REMARKS ST JOHNSBURY N/A 79 68 69 MISG 29.75F MONTPELIER PTSUNNY 77 64 64 SW9 29.82F BURLINGTON PTSUNNY 81 65 58 NW12 29.75S $$ MAZ007-012-024-CTZ003-RIZ002-NYZ038-NYZ072-192100- SOUTHERN NEW ENGLAND AND NY CITY SKY/WX TMP DP RH WIND PRES REMARKS BOSTON MOSUNNY 69 66 90 E8 29.79F WORCESTER SUNNY 82 58 43 W14 29.84S NANTUCKET MOSUNNY 76 73 91 SW13 29.82R PROVIDENCE PTSUNNY 87 63 44 W10 29.79F HARTFORD MOSUNNY 86 63 45 W9 29.81S ALBANY MOSUNNY 83 63 50 W9 29.81F NEW YORK CITY PTSUNNY 88 63 43 W13 29.83S $$ ANZ081-ANZ082-ANZ150-NHZ014-MEZ023>029-192100- COASTAL MARINE OBSERVATIONS STATION/POSITION TIME TEMP WIND PRES WAVE AIR SEA DIR/SP/G HT/PER (UTC) (F) (DEG/KT/KT) (MB) (FT/S) MOUNT DESERT ROC 2000 59 1008.8R MATINICUS ROCK 1900 60 260/ 6/ 7 1008.3F ISLE OF SHOALS 1900 66 140/ 12/ 12 1008.3F JEFFREYS LEDGE 1936 67 N/A 2/ 7 CASHES LEDGE BUO 1950 70 68 1009.1F 4/ 6 GEORGES BANK BUO 1850 69 63 1010.8 7/ 6 $$ .............KEY.............. WCI - WIND CHILL TC - TEMPERATURE IN CELSIUS VSB - VISIBILITY IN MILES HX - HEAT INDEX FAIR- INDICATES FEW OR NO CLOUDS BELOW 12,000 FT, WITH NO SIGNIFICANT WEATHER AND/OR OBSTRUCTIONS TO VISIBILITY.

USA.gov is the U.S. government's official web portal to all federal, state and local government web resources and services.